一网星座-0594星 (ONEWEB-0594 )

导读

ONEWEB-0594是英国OneWeb(一网)星座下的低轨宽带通信卫星,于2022年12月8日发射入轨。作为全球第二大卫星互联网星座组网卫星,它运行于1200公里近地轨道,单星重量约147.5kg,配备Ku/Ka波段天线,依托离子电推进提升轨道,为全球宽带互联网接入服务提供基础设施支撑,助力OneWeb实现全球网络覆盖。

Basic Information
目录编号:
54660
目录名称:
ONEWEB-0594
国际标识:
2022-166U
轨道中心:
EARTH
卫星名称:
一网星座-0594星
卫星全名:
一网星座-0594星 (ONEWEB-0594 )
卫星状态:
在轨 (已飞行1374 天)
发射日期:
2022-12-08 UTC
国别 :
英国 (GB)
星等 :
--
This satellite is enrolled in the Space Conjunction Data Service (SCDS) and the current flight risk assessment level is: No High Risk
Orbit Information
数据来源 国际轨道数据 AOE轨道数据
星历时间 2026-09-11T23:34:20+0800
14小时前
查看轨道信息
2026-09-11T06:00:00+0800
1天前
查看轨道信息
半长轴 7555.885km 7555.9km
偏心率 0.0002067 0.0002855
轨道倾角 87.926° 87.924°
近地点辐角 78.064° 51.420°
升交点赤经 226.778° 226.926°
平近点角 282.073° 66.582°
近地点 1176.186km 1175.605km
远地点 1179.31km 1179.921km
周期 108.940分钟 108.940分钟
每日圈数 13.218275 13.218235
Detailed Information
平衡模式:
三轴稳定
覆盖范围:
全球
运营商:
一网卫星公司
运营商所在国:
英国
制造商(研发单位):
一网卫星公司
制造商所在国:
英国
使用方式:
暂无
Satellite Introduction
OneWeb卫星网络由648颗重约125公斤的微型卫星组成,运行在1200公里的轨道上。 每颗卫星都能够提供至少每秒8千兆位的吞吐量,以使用其高吞吐量的Ku频段有效载荷为家庭和移动平台提供互联网接入。该卫星仍在工作。
2D Orbit Map
3D Orbit Map
Orbit Altitude Analysis Chart
Orbit Inclination Analysis Chart
Orbit Comprehensive Analysis Chart
View Comprehensive Chart
Miss Distance Evolution Trend with All Objects
Collision Probability Evolution Trend with All Objects